Tracking 23583 objects as of 28-Jul-2021
HD Live streaming from Space Station
objects crossing your sky now

ABS 3

Track ABS 3 now!
ABS 3 is classified as:


NORAD ID: 24901
Int'l Code: 1997-042A
Perigee: 36,062.7 km
Apogee: 36,094.6 km
Inclination: 7.7 °
Period: 1,450.7 minutes
Semi major axis: 42449 km
RCS: 10 m2 (large)
Launch date: August 19, 1997
Source: People's Republic of China (PRC)
Launch site: Xichang Space Center, China (XSC)

Most powerful telecommunications satellite in service in the Asia-Pacific region; 30 C-band, 24 Ku-band transponders; 190 high fidelity channels and 50,000 simultaneous telephone links.
aabbcc
Your satellite tracking list
Your tracking list is empty




NASA's NSSDC Master Catalog

Two Line Element Set (TLE):
1 24901U 97042A   21208.78956069 -.00000168  00000-0  00000+0 0  9996
2 24901   7.6526  55.5001 0003754  71.2046 281.3716  0.99264080 87493
Source of the keplerian elements: AFSPC